Weather History for Adak, AK

Change the Weather History Date:

Wednesday, November 21, 2012

  Actual Average Record
Temperature  
Mean Temperature 35 °F -  
Max Temperature 37 °F 39 °F 50 °F (1965)
Min Temperature 33 °F 30 °F 17 °F (1980)
Degree Days  
Heating Degree Days 30    
Moisture  
Dew Point 26 °F    
Average Humidity 70    
Maximum Humidity 81    
Minimum Humidity 58    
Precipitation  
Precipitation 0.00 in - - ()
Sea Level Pressure  
Sea Level Pressure 30.26 in    
Wind  
Wind Speed 9 mph (East)    
Max Wind Speed 15 mph    
Max Gust Speed 16 mph    
Visibility 10 miles    
Events      
Averages and records for this station are not official NWS values.
T = Trace of Precipitation, MM = Missing Value Source: NWS Daily Summary

Daily Weather History Graph

Daily Weather History Graph

Search for Another Location

Airport:

Trip Planner

Search our weather history database for the weather conditions in past years. The results will help you decide how hot, cold, wet, or windy it might be!

Date:

Astronomy

Nov. 21, 2012 Rise Set
Actual Time 9:17 AM HAST 5:47 PM HAST
Civil Twilight 8:39 AM HAST 6:25 PM HAST
Nautical Twilight 7:57 AM HAST 7:07 PM HAST
Astronomical Twilight 7:17 AM HAST 7:47 PM HAST
Moon 2:50 PM HAST (11/21) 2:07 AM HAST (11/21)
Length of Visible Light 9h 46m
Length of Day
8h 29m
Waxing Gibbous, 63% of the Moon is Illuminated
Nov 21
Waxing Gibbous
Nov 28
Full
Dec 6
Last Quarter
Dec 12
New
Dec 19
First Quarter

Hourly Weather History & Observations

Time (HAST) Temp. Windchill Dew Point Humidity Pressure Visibility Wind Dir Wind Speed Gust Speed Precip Events Conditions
12:16 AM 37.4 °F 29.8 °F 30.2 °F 75% 30.25 in 10.0 mi NNE 11.5 mph - N/A   Overcast
12:36 AM 37.4 °F 30.8 °F 30.2 °F 75% 30.26 in 10.0 mi NNE 9.2 mph - N/A   Overcast
12:56 AM 37.4 °F 30.3 °F 28.4 °F 70% 30.26 in 10.0 mi NNE 10.4 mph - N/A   Overcast
1:16 AM 35.6 °F 29.2 °F 30.2 °F 81% 30.26 in 10.0 mi NNE 8.1 mph - N/A   Overcast
1:36 AM 35.6 °F 28.0 °F 30.2 °F 81% 30.26 in 10.0 mi NE 10.4 mph - N/A   Overcast
1:56 AM 35.6 °F 26.6 °F 28.4 °F 75% 30.26 in 10.0 mi NE 13.8 mph - N/A   Overcast
2:16 AM 35.6 °F 28.0 °F 28.4 °F 75% 30.26 in 10.0 mi NE 10.4 mph - N/A   Overcast
2:36 AM 35.6 °F 28.0 °F 28.4 °F 75% 30.26 in 10.0 mi NNE 10.4 mph - N/A   Overcast
2:56 AM 35.6 °F 28.6 °F 28.4 °F 75% 30.26 in 10.0 mi NE 9.2 mph - N/A   Overcast
3:16 AM 33.8 °F 26.4 °F 28.4 °F 81% 30.26 in 10.0 mi NNE 9.2 mph - N/A   Overcast
3:36 AM 33.8 °F 27.0 °F 26.6 °F 75% 30.26 in 10.0 mi NNE 8.1 mph - N/A   Overcast
3:56 AM 33.8 °F 25.8 °F 26.6 °F 75% 30.26 in 10.0 mi NNE 10.4 mph - N/A   Overcast
4:16 AM 33.8 °F 28.6 °F 26.6 °F 75% 30.26 in 10.0 mi NNE 5.8 mph - N/A   Overcast
4:36 AM 33.8 °F 27.0 °F 26.6 °F 75% 30.26 in 10.0 mi NNE 8.1 mph - N/A   Overcast
4:56 AM 35.6 °F 29.2 °F 26.6 °F 70% 30.26 in 10.0 mi NE 8.1 mph - N/A   Overcast
5:16 AM 33.8 °F 27.0 °F 26.6 °F 75% 30.26 in 10.0 mi North 8.1 mph - N/A   Overcast
5:36 AM 33.8 °F 27.0 °F 26.6 °F 75% 30.26 in 10.0 mi North 8.1 mph - N/A   Overcast
5:56 AM 35.6 °F 26.2 °F 26.6 °F 70% 30.26 in 10.0 mi ESE 15.0 mph - N/A   Overcast
6:16 AM 35.6 °F 29.2 °F 26.6 °F 70% 30.26 in 10.0 mi ESE 8.1 mph - N/A   Overcast
6:36 AM 35.6 °F 29.2 °F 24.8 °F 65% 30.27 in 10.0 mi ESE 8.1 mph - N/A   Overcast
6:56 AM 35.6 °F 30.7 °F 24.8 °F 65% 30.27 in 10.0 mi ESE 5.8 mph - N/A   Overcast
7:16 AM 35.6 °F 28.0 °F 26.6 °F 70% 30.27 in 10.0 mi ESE 10.4 mph - N/A   Overcast
7:36 AM 35.6 °F 28.6 °F 26.6 °F 70% 30.28 in 10.0 mi SE 9.2 mph - N/A   Overcast
7:56 AM 35.6 °F 27.1 °F 24.8 °F 65% 30.28 in 10.0 mi SE 12.7 mph - N/A   Overcast
8:16 AM 35.6 °F 29.2 °F 24.8 °F 65% 30.28 in 10.0 mi ESE 8.1 mph - N/A   Overcast
8:36 AM 35.6 °F 28.0 °F 26.6 °F 70% 30.28 in 10.0 mi ESE 10.4 mph - N/A   Overcast
8:56 AM 35.6 °F 28.0 °F 26.6 °F 70% 30.29 in 10.0 mi East 10.4 mph - N/A   Overcast
9:16 AM 35.6 °F 28.6 °F 26.6 °F 70% 30.29 in 10.0 mi East 9.2 mph - N/A   Overcast
9:36 AM 35.6 °F 29.9 °F 26.6 °F 70% 30.29 in 10.0 mi East 6.9 mph - N/A   Overcast
9:56 AM 35.6 °F 28.6 °F 26.6 °F 70% 30.29 in 10.0 mi ENE 9.2 mph - N/A   Overcast
10:16 AM 33.8 °F 27.0 °F 24.8 °F 70% 30.29 in 10.0 mi NE 8.1 mph - N/A   Overcast
10:36 AM 35.6 °F 28.6 °F 26.6 °F 70% 30.29 in 10.0 mi East 9.2 mph - N/A   Overcast
10:56 AM 35.6 °F 28.0 °F 26.6 °F 70% 30.29 in 10.0 mi East 10.4 mph - N/A   Overcast
11:16 AM 35.6 °F 27.5 °F 26.6 °F 70% 30.29 in 10.0 mi East 11.5 mph - N/A   Overcast
11:36 AM 35.6 °F 27.1 °F 26.6 °F 70% 30.29 in 10.0 mi East 12.7 mph - N/A   Overcast
11:56 AM 35.6 °F 30.7 °F 26.6 °F 70% 30.29 in 10.0 mi East 5.8 mph - N/A   Overcast
12:16 PM 35.6 °F 29.2 °F 24.8 °F 65% 30.29 in 10.0 mi ESE 8.1 mph - N/A   Overcast
12:36 PM 35.6 °F 30.7 °F 24.8 °F 65% 30.28 in 10.0 mi ESE 5.8 mph - N/A   Overcast
12:56 PM 35.6 °F 29.2 °F 26.6 °F 70% 30.28 in 10.0 mi ESE 8.1 mph - N/A   Overcast
1:16 PM 35.6 °F 30.7 °F 24.8 °F 65% 30.28 in 10.0 mi SE 5.8 mph - N/A   Overcast
1:36 PM 35.6 °F 31.7 °F 24.8 °F 65% 30.27 in 10.0 mi East 4.6 mph - N/A   Overcast
1:56 PM 35.6 °F 31.7 °F 26.6 °F 70% 30.26 in 10.0 mi East 4.6 mph - N/A   Overcast
2:16 PM 35.6 °F 29.2 °F 26.6 °F 70% 30.26 in 10.0 mi East 8.1 mph - N/A   Overcast
2:36 PM 35.6 °F 28.0 °F 26.6 °F 70% 30.26 in 10.0 mi ESE 10.4 mph - N/A   Overcast
2:56 PM 35.6 °F 30.7 °F 24.8 °F 65% 30.25 in 10.0 mi ESE 5.8 mph - N/A   Overcast
3:16 PM 35.6 °F 29.2 °F 24.8 °F 65% 30.26 in 10.0 mi SE 8.1 mph - N/A   Overcast
3:36 PM 35.6 °F 28.6 °F 24.8 °F 65% 30.26 in 10.0 mi SE 9.2 mph - N/A   Overcast
3:56 PM 35.6 °F 30.7 °F 26.6 °F 70% 30.26 in 10.0 mi ESE 5.8 mph - N/A   Overcast
4:16 PM 35.6 °F 30.7 °F 24.8 °F 65% 30.25 in 10.0 mi SE 5.8 mph - N/A   Overcast
4:36 PM 35.6 °F 31.7 °F 24.8 °F 65% 30.25 in 10.0 mi ESE 4.6 mph - N/A   Overcast
4:56 PM 35.6 °F 29.2 °F 26.6 °F 70% 30.25 in 10.0 mi SE 8.1 mph - N/A   Overcast
5:16 PM 35.6 °F 30.7 °F 24.8 °F 65% 30.25 in 10.0 mi SSE 5.8 mph - N/A   Overcast
5:36 PM 35.6 °F 28.0 °F 24.8 °F 65% 30.25 in 10.0 mi ESE 10.4 mph - N/A   Mostly Cloudy
5:56 PM 35.6 °F 28.6 °F 24.8 °F 65% 30.24 in 10.0 mi SE 9.2 mph - N/A   Mostly Cloudy
6:16 PM 33.8 °F 27.7 °F 24.8 °F 70% 30.25 in 10.0 mi SE 6.9 mph - N/A   Scattered Clouds
6:36 PM 33.8 °F 28.6 °F 24.8 °F 70% 30.25 in 10.0 mi SSE 5.8 mph - N/A   Mostly Cloudy
6:56 PM 35.6 °F 29.9 °F 24.8 °F 65% 30.24 in 10.0 mi SE 6.9 mph - N/A   Overcast
7:16 PM 35.6 °F 31.7 °F 26.6 °F 70% 30.24 in 10.0 mi ESE 4.6 mph - N/A   Overcast
7:36 PM 35.6 °F 30.7 °F 26.6 °F 70% 30.25 in 10.0 mi ESE 5.8 mph - N/A   Overcast
7:56 PM 35.6 °F 28.0 °F 26.6 °F 70% 30.25 in 10.0 mi SSE 10.4 mph - N/A   Overcast
8:16 PM 35.6 °F 29.2 °F 26.6 °F 70% 30.25 in 10.0 mi SSE 8.1 mph - N/A   Overcast
8:36 PM 35.6 °F 28.6 °F 26.6 °F 70% 30.25 in 10.0 mi SE 9.2 mph - N/A   Overcast
8:56 PM 35.6 °F 29.2 °F 26.6 °F 70% 30.25 in 10.0 mi SSE 8.1 mph - N/A   Overcast
9:16 PM 35.6 °F 27.1 °F 26.6 °F 70% 30.24 in 10.0 mi SE 12.7 mph 16.1 mph N/A   Overcast
9:36 PM 35.6 °F 29.2 °F 26.6 °F 70% 30.24 in 10.0 mi SE 8.1 mph - N/A   Overcast
9:56 PM 35.6 °F 28.6 °F 26.6 °F 70% 30.23 in 10.0 mi SSE 9.2 mph - N/A   Overcast
10:16 PM 35.6 °F 27.5 °F 26.6 °F 70% 30.23 in 10.0 mi SE 11.5 mph - N/A   Overcast
10:36 PM 35.6 °F 27.5 °F 26.6 °F 70% 30.23 in 10.0 mi SE 11.5 mph - N/A   Overcast
10:56 PM 35.6 °F 29.9 °F 26.6 °F 70% 30.23 in 10.0 mi SE 6.9 mph - N/A   Overcast
11:16 PM 35.6 °F 29.2 °F 26.6 °F 70% 30.22 in 10.0 mi SE 8.1 mph - N/A   Overcast
11:36 PM 35.6 °F 30.7 °F 26.6 °F 70% 30.22 in 10.0 mi South 5.8 mph - N/A   Overcast
11:56 PM 35.6 °F 28.0 °F 26.6 °F 70% 30.22 in 10.0 mi SE 10.4 mph - N/A   Overcast